Date String (YYYY-MM-DD hh:mm:ss) UTC,Instrument flags,Ambient pressure (hPa),Sample flow (lpm),Bypass flow (lpm),Sample temperature (°C),Ambient temperature (°C),ASC tube jacket temperature (°C),LED temperature (°C),Box temperature (°C),Sample RH (%),Span deviation,Mass concentration (μg/m³),Mass concentration (μg/m³),Mass concentration (μg/m³)
DateTimeUTC,F1_M11,P_M11,Q1_M11,Q2_M11,T1_M11,T2_M11,T3_M11,T4_M11,T5_M11,U1_M11,ZSPAN_M11,X0_M11,X2_M11,X1_M11
2022-02-24 23:00:00,,0822.9,4.99,0.00,22.6,21.7,00.0,31.7,24.4,06.3,0000.6,0013.97,0008.31,0007.39
2022-02-24 23:01:00,,0822.8,4.99,0.00,22.6,21.7,00.0,31.7,24.3,06.3,0001.1,0014.34,0008.34,0007.40
2022-02-24 23:02:00,,0822.8,5.01,0.00,22.6,21.7,00.0,31.6,24.2,06.3,0000.8,0014.72,0008.38,0007.42
2022-02-24 23:03:00,,0822.9,5.00,0.00,22.5,21.6,00.0,31.6,24.1,06.3,0001.0,0014.17,0008.34,0007.42
2022-02-24 23:04:00,,0823.1,4.99,0.00,22.5,21.6,00.0,31.6,24.1,06.4,0001.5,0013.67,0008.28,0007.42
2022-02-24 23:05:00,,0823.1,4.99,0.00,22.5,21.6,00.0,31.6,24.2,06.5,0001.5,0013.82,0008.31,0007.43
2022-02-24 23:06:00,,0822.9,5.01,0.00,22.5,21.6,00.0,31.6,24.2,06.5,0001.2,0014.21,0008.34,0007.43
2022-02-24 23:07:00,,0822.9,5.00,0.00,22.4,21.5,00.0,31.5,24.2,06.4,0000.9,0014.23,0008.35,0007.43
2022-02-24 23:08:00,,0823.0,4.99,0.00,22.4,21.4,00.0,31.5,24.1,06.5,0000.7,0014.25,0008.36,0007.43
2022-02-24 23:09:00,,0823.0,5.00,0.00,22.3,21.4,00.0,31.5,24.0,06.5,0000.6,0014.09,0008.30,0007.41
2022-02-24 23:10:00,,0823.0,5.00,0.00,22.3,21.4,00.0,31.5,24.0,06.5,0000.8,0013.49,0008.21,0007.39
2022-02-24 23:11:00,,0823.0,5.00,0.00,22.3,21.4,00.0,31.5,24.0,06.5,0000.9,0013.37,0008.18,0007.36
2022-02-24 23:12:00,,0823.0,4.99,0.00,22.3,21.4,00.0,31.4,24.1,06.4,0000.6,0013.08,0008.17,0007.35
2022-02-24 23:13:00,,0823.1,5.01,0.00,22.3,21.4,00.0,31.4,24.1,06.4,0000.4,0012.67,0008.15,0007.34
2022-02-24 23:14:00,,0823.1,5.00,0.00,22.3,21.4,00.0,31.4,24.1,06.4,0000.2,0013.33,0008.14,0007.32
2022-02-24 23:15:00,,0823.2,4.99,0.00,22.3,21.5,00.0,31.4,24.0,06.5,0000.3,0014.31,0008.13,0007.30
2022-02-24 23:16:00,,0823.2,5.00,0.00,22.4,21.9,00.0,31.4,24.2,06.4,0000.1,0014.43,0008.12,0007.30
2022-02-24 23:17:00,,0823.1,4.99,0.00,22.5,22.7,00.0,31.5,24.4,06.4,0000.0,0014.03,0008.07,0007.29
2022-02-24 23:18:00,,0823.1,5.02,0.00,22.6,22.9,00.0,31.5,24.6,06.4,-000.2,0014.11,0008.07,0007.28
2022-02-24 23:19:00,,0823.1,5.00,0.00,22.7,22.7,00.0,31.5,24.6,06.4,-000.5,0014.50,0008.07,0007.28
2022-02-24 23:20:00,,0823.2,4.99,0.00,22.7,22.6,00.0,31.5,24.6,06.4,-000.3,0014.54,0008.08,0007.26
2022-02-24 23:21:00,,0823.2,5.00,0.00,22.7,22.4,00.0,31.5,24.6,06.4,-000.4,0014.76,0008.13,0007.26
2022-02-24 23:22:00,,0823.2,5.00,0.00,22.7,22.3,00.0,31.5,24.5,06.5,-000.3,0014.89,0008.15,0007.27
2022-02-24 23:23:00,,0823.2,5.00,0.00,22.7,22.2,00.0,31.5,24.5,06.5,-000.4,0014.71,0008.10,0007.24
2022-02-24 23:24:00,,0823.2,4.99,0.00,22.7,22.1,00.0,31.5,24.5,06.5,-000.7,0014.63,0008.11,0007.23
2022-02-24 23:25:00,,0823.1,5.02,0.00,22.7,22.1,00.0,31.6,24.5,06.5,-000.6,0013.94,0008.11,0007.23
2022-02-24 23:26:00,,0823.2,5.00,0.00,22.7,22.1,00.0,31.6,24.5,06.4,-001.0,0013.03,0008.15,0007.24
2022-02-24 23:27:00,,0823.2,4.99,0.00,22.7,22.0,00.0,31.6,24.5,06.4,-000.5,0012.79,0008.15,0007.24
2022-02-24 23:28:00,,0823.3,5.00,0.00,22.7,22.0,00.0,31.6,24.5,06.5,0000.1,0012.74,0008.14,0007.24
2022-02-24 23:29:00,,0823.2,5.01,0.00,22.7,22.0,00.0,31.6,24.5,06.4,0000.1,0012.65,0008.09,0007.22
2022-02-24 23:30:00,,0823.2,4.99,0.00,22.6,22.0,00.0,31.6,24.4,06.2,0000.4,0012.13,0008.02,0007.20
2022-02-24 23:31:00,,0823.3,5.00,0.00,22.6,21.9,00.0,31.6,24.4,06.2,0000.1,0012.09,0007.97,0007.18
2022-02-24 23:32:00,,0823.3,5.00,0.00,22.6,21.9,00.0,31.6,24.4,06.1,0000.3,0011.91,0007.94,0007.16
2022-02-24 23:33:00,,0823.2,5.01,0.00,22.6,21.9,00.0,31.6,24.4,06.0,0000.2,0011.83,0007.89,0007.15
2022-02-24 23:34:00,,0823.3,5.00,0.00,22.6,21.9,00.0,31.6,24.4,05.9,0000.2,0011.87,0007.89,0007.14
2022-02-24 23:35:00,,0823.3,4.99,0.00,22.6,21.8,00.0,31.6,24.4,05.8,0001.3,0011.88,0007.87,0007.13
2022-02-24 23:36:00,,0823.3,4.99,0.00,22.6,21.8,00.0,31.6,24.4,05.8,0001.2,0011.80,0007.82,0007.11
2022-02-24 23:37:00,,0823.4,5.01,0.00,22.6,21.8,00.0,31.6,24.4,05.8,0001.1,0011.79,0007.77,0007.09
2022-02-24 23:38:00,,0823.4,4.99,0.00,22.6,21.7,00.0,31.6,24.4,05.8,0001.1,0011.75,0007.74,0007.08
2022-02-24 23:39:00,,0823.3,4.99,0.00,22.6,21.7,00.0,31.6,24.4,05.9,0001.1,0011.91,0007.72,0007.06
2022-02-24 23:40:00,,0823.3,4.99,0.00,22.6,21.7,00.0,31.6,24.4,06.0,0001.5,0012.03,0007.72,0007.08
2022-02-24 23:41:00,,0823.4,5.01,0.00,22.6,21.7,00.0,31.5,24.4,06.1,0001.5,0012.69,0007.78,0007.11
2022-02-24 23:42:00,,0823.3,5.01,0.00,22.6,21.7,00.0,31.5,24.4,06.0,0001.4,0012.96,0007.81,0007.12
2022-02-24 23:43:00,,0823.3,5.00,0.00,22.6,21.8,00.0,31.5,24.4,05.8,0001.2,0013.26,0007.82,0007.12
2022-02-24 23:44:00,,0823.4,5.01,0.00,22.6,21.7,00.0,31.5,24.4,05.9,0001.3,0013.11,0007.80,0007.12
2022-02-24 23:45:00,,0823.4,4.99,0.00,22.6,21.7,00.0,31.5,24.3,06.1,0001.4,0013.08,0007.80,0007.14
2022-02-24 23:46:00,,0823.5,5.00,0.00,22.5,21.8,00.0,31.5,24.3,06.1,0001.0,0013.06,0007.82,0007.15
2022-02-24 23:47:00,,0823.4,5.00,0.00,22.5,21.8,00.0,31.5,24.3,06.2,0001.2,0013.24,0007.90,0007.18
2022-02-24 23:48:00,,0823.3,5.00,0.00,22.5,21.8,00.0,31.5,24.4,06.2,0001.6,0013.57,0007.90,0007.19
2022-02-24 23:49:00,,0823.3,5.01,0.00,22.5,21.7,00.0,31.5,24.4,06.2,0001.3,0014.03,0007.92,0007.20
2022-02-24 23:50:00,,0823.4,5.00,0.00,22.5,21.8,00.0,31.5,24.4,06.2,0000.9,0014.01,0007.94,0007.23
2022-02-24 23:51:00,,0823.4,5.00,0.00,22.6,21.8,00.0,31.5,24.4,06.2,0000.6,0013.78,0007.98,0007.25
2022-02-24 23:52:00,,0823.5,5.00,0.00,22.6,21.8,00.0,31.5,24.4,06.3,0000.5,0013.60,0007.97,0007.25
2022-02-24 23:53:00,,0823.6,5.02,0.00,22.6,21.8,00.0,31.5,24.4,06.4,0000.8,0013.43,0007.98,0007.27
2022-02-24 23:54:00,,0823.6,4.99,0.00,22.6,21.8,00.0,31.5,24.4,06.3,0001.1,0013.20,0008.04,0007.31
2022-02-24 23:55:00,,0823.6,5.00,0.00,22.6,21.8,00.0,31.5,24.4,06.3,0001.3,0013.35,0008.10,0007.34
2022-02-24 23:56:00,,0823.7,5.00,0.00,22.6,21.8,00.0,31.5,24.4,06.3,0001.2,0013.41,0008.11,0007.36
2022-02-24 23:57:00,,0823.6,5.00,0.00,22.6,21.8,00.0,31.5,24.4,06.2,0001.0,0013.80,0008.13,0007.36
2022-02-24 23:58:00,,0823.7,5.00,0.00,22.6,21.8,00.0,31.5,24.4,06.1,0001.1,0013.82,0008.12,0007.37
2022-02-24 23:59:00,,0823.6,4.99,0.00,22.6,21.8,00.0,31.5,24.4,06.1,0001.1,0013.41,0008.12,0007.37
